DeKalb, IL

2:33 AM CDT on September 24, 2017 (GMT -0500)
De Kalb Taylor Municipal

Weather History for KDKB - April, 2013

Change the Weather History Date:

Tuesday, April 2, 2013

  Actual Average (KARR) Record (KARR)
Temperature  
Mean Temperature 30 °F -  
Max Temperature 41 °F 53 °F 79 °F (2003)
Min Temperature 22 °F 32 °F 21 °F (2013)
Degree Days  
Heating Degree Days 34    
Moisture  
Dew Point 15 °F    
Average Humidity 54    
Maximum Humidity 81    
Minimum Humidity 27    
Precipitation  
Precipitation 0.00 in - - ()
Sea Level Pressure  
Sea Level Pressure 30.24 in    
Wind  
Wind Speed 9 mph (WNW)    
Max Wind Speed 18 mph    
Max Gust Speed 24 mph    
Visibility 10 miles    
Events      
Averages and records for this station are not official NWS values.
T = Trace of Precipitation, MM = Missing Value Source: NWS Daily Summary

Daily Weather History Graph

Daily Weather History Graph

Search for Another Location

Airport or City:

Trip Planner

Search our weather history database for the weather conditions in past years. The results will help you decide how hot, cold, wet, or windy it might be!

Date:

Astronomy

Apr. 02, 2013 Rise Set
Actual Time 6:35 AM CDT 7:21 PM CDT
Civil Twilight 6:07 AM CDT 7:50 PM CDT
Nautical Twilight 5:33 AM CDT 8:23 PM CDT
Astronomical Twilight 4:59 AM CDT 8:58 PM CDT
Moon 1:30 AM CDT (4/2) 11:22 AM CDT (4/2)
Length of Visible Light 13h 42m
Length of Day
12h 46m
Waning Gibbous, 55% of the Moon is Illuminated
Apr 2
Waning Gibbous
Apr 2
Last Quarter
Apr 10
New
Apr 18
First Quarter
Apr 25
Full

Hourly Weather History & Observations

Time (CDT) Temp. Windchill Dew Point Humidity Pressure Visibility Wind Dir Wind Speed Gust Speed Precip Events Conditions
12:15 AM 26.6 °F 17.5 °F 16.5 °F 66% 30.19 in 10.0 mi NW 9.2 mph - N/A   Clear
12:35 AM 26.4 °F 17.3 °F 16.5 °F 66% 30.19 in 10.0 mi NW 9.2 mph - N/A   Clear
12:55 AM 26.1 °F 17.6 °F 16.0 °F 66% 30.20 in 10.0 mi NW 8.1 mph - N/A   Clear
1:15 AM 25.5 °F 16.9 °F 16.0 °F 67% 30.20 in 10.0 mi NW 8.1 mph - N/A   Clear
1:35 AM 25.2 °F 16.5 °F 16.7 °F 70% 30.20 in 10.0 mi WNW 8.1 mph - N/A   Clear
1:55 AM 24.8 °F 16.1 °F 16.5 °F 71% 30.20 in 10.0 mi WNW 8.1 mph - N/A   Clear
2:15 AM 24.3 °F 15.4 °F 16.7 °F 73% 30.20 in 10.0 mi WNW 8.1 mph - N/A   Clear
2:35 AM 24.4 °F 15.6 °F 16.7 °F 72% 30.20 in 10.0 mi WNW 8.1 mph - N/A   Clear
2:55 AM 24.1 °F 15.2 °F 16.5 °F 73% 30.20 in 10.0 mi WNW 8.1 mph - N/A   Clear
3:15 AM 23.9 °F 14.2 °F 16.7 °F 74% 30.20 in 10.0 mi WNW 9.2 mph - N/A   Clear
3:35 AM 23.9 °F 14.2 °F 16.9 °F 75% 30.20 in 10.0 mi WNW 9.2 mph - N/A   Clear
3:55 AM 23.9 °F 15.0 °F 17.1 °F 75% 30.20 in 10.0 mi WNW 8.1 mph - N/A   Clear
4:15 AM 23.9 °F 15.0 °F 17.1 °F 75% 30.21 in 10.0 mi West 8.1 mph - N/A   Clear
4:35 AM 23.9 °F 14.2 °F 17.1 °F 75% 30.21 in 10.0 mi West 9.2 mph - N/A   Clear
4:55 AM 23.0 °F 13.9 °F 16.9 °F 77% 30.21 in 10.0 mi West 8.1 mph - N/A   Clear
5:15 AM 23.0 °F 13.1 °F 17.2 °F 79% 30.21 in 10.0 mi West 9.2 mph - N/A   Clear
5:35 AM 22.8 °F 13.6 °F 17.4 °F 80% 30.22 in 10.0 mi West 8.1 mph - N/A   Clear
5:55 AM 22.6 °F 12.6 °F 17.6 °F 81% 30.22 in 10.0 mi West 9.2 mph - N/A   Clear
6:15 AM 23.4 °F 13.5 °F 17.8 °F 79% 30.22 in 10.0 mi West 9.2 mph - N/A   Clear
6:35 AM 23.4 °F 13.5 °F 17.6 °F 79% 30.23 in 10.0 mi WNW 9.2 mph - N/A   Clear
6:55 AM 23.4 °F 13.5 °F 17.6 °F 79% 30.24 in 10.0 mi WNW 9.2 mph - N/A   Clear
7:15 AM 23.9 °F 15.0 °F 18.3 °F 79% 30.24 in 10.0 mi WNW 8.1 mph - N/A   Clear
7:35 AM 25.0 °F 16.3 °F 18.7 °F 77% 30.25 in 10.0 mi WNW 8.1 mph - N/A   Clear
7:55 AM 26.1 °F 16.8 °F 19.4 °F 76% 30.26 in 10.0 mi WNW 9.2 mph - N/A   Clear
8:15 AM 27.3 °F 17.7 °F 19.6 °F 73% 30.26 in 10.0 mi WNW 10.4 mph - N/A   Clear
8:35 AM 27.9 °F 18.4 °F 18.9 °F 69% 30.26 in 10.0 mi WNW 10.4 mph - N/A   Clear
8:55 AM 28.9 °F 19.8 °F 18.9 °F 66% 30.27 in 10.0 mi WNW 10.4 mph - N/A   Clear
9:35 AM 30.9 °F 24.3 °F 18.7 °F 61% 30.27 in 10.0 mi WNW 6.9 mph - N/A   Clear
9:55 AM 32.0 °F 24.2 °F 19.2 °F 59% 30.27 in 10.0 mi NW 9.2 mph - N/A   Clear
10:15 AM 32.7 °F 25.0 °F 17.4 °F 53% 30.27 in 10.0 mi WNW 9.2 mph - N/A   Clear
10:35 AM 33.6 °F 24.6 °F 15.8 °F 48% 30.27 in 10.0 mi WNW 12.7 mph 16.1 mph N/A   Clear
10:55 AM 34.3 °F 26.5 °F 16.3 °F 48% 30.27 in 10.0 mi West 10.4 mph 18.4 mph N/A   Clear
11:15 AM 35.1 °F 25.2 °F 14.7 °F 43% 30.27 in 10.0 mi WNW 16.1 mph 23.0 mph N/A   Clear
11:35 AM 35.4 °F 24.9 °F 12.4 °F 39% 30.27 in 10.0 mi WNW 18.4 mph 21.9 mph N/A   Clear
11:55 AM 36.1 °F 27.3 °F 10.4 °F 35% 30.27 in 10.0 mi NW 13.8 mph 19.6 mph N/A   Clear
12:15 PM 37.0 °F 29.3 °F 10.2 °F 33% 30.26 in 10.0 mi WNW 11.5 mph 21.9 mph N/A   Clear
12:35 PM 37.6 °F 29.6 °F 9.7 °F 32% 30.26 in 10.0 mi West 12.7 mph 18.4 mph N/A   Clear
12:55 PM 37.8 °F 29.8 °F 8.4 °F 30% 30.25 in 10.0 mi NW 12.7 mph 18.4 mph N/A   Clear
1:15 PM 38.7 °F 30.1 °F 8.8 °F 29% 30.25 in 10.0 mi West 15.0 mph 23.0 mph N/A   Clear
1:35 PM 38.7 °F 30.9 °F 7.2 °F 27% 30.24 in 10.0 mi WNW 12.7 mph 17.3 mph N/A   Clear
1:55 PM 37.0 °F 28.5 °F 7.7 °F 30% 30.24 in 10.0 mi West 13.8 mph 19.6 mph N/A   Clear
2:15 PM 39.4 °F 31.4 °F 8.8 °F 28% 30.23 in 10.0 mi WNW 13.8 mph 19.6 mph N/A   Clear
2:35 PM 38.7 °F 29.8 °F 9.0 °F 29% 30.23 in 10.0 mi WNW 16.1 mph 23.0 mph N/A   Scattered Clouds
2:55 PM 38.7 °F 33.6 °F 8.4 °F 29% 30.23 in 10.0 mi WNW 6.9 mph 21.9 mph N/A   Scattered Clouds
3:15 PM 39.6 °F 32.5 °F 11.3 °F 31% 30.22 in 10.0 mi WNW 11.5 mph 16.1 mph N/A   Scattered Clouds
3:35 PM 39.4 °F 31.8 °F 11.3 °F 32% 30.22 in 10.0 mi WNW 12.7 mph 24.2 mph N/A   Mostly Cloudy
3:55 PM 38.7 °F 30.1 °F 10.9 °F 32% 30.22 in 10.0 mi West 15.0 mph 18.4 mph N/A   Mostly Cloudy
4:15 PM 39.0 °F 31.0 °F 12.2 °F 33% 30.23 in 10.0 mi WNW 13.8 mph 19.6 mph N/A   Overcast
4:35 PM 37.8 °F 29.4 °F 11.8 °F 34% 30.23 in 10.0 mi WNW 13.8 mph 17.3 mph N/A   Mostly Cloudy
4:55 PM 39.2 °F 31.6 °F 11.3 °F 32% 30.23 in 10.0 mi WNW 12.7 mph - N/A   Mostly Cloudy
5:15 PM 38.3 °F 31.4 °F 10.9 °F 32% 30.23 in 10.0 mi WNW 10.4 mph - N/A   Mostly Cloudy
5:35 PM 39.7 °F 30.9 °F 10.4 °F 30% 30.22 in 10.0 mi WNW 17.3 mph 21.9 mph N/A   Overcast
5:55 PM 38.8 °F 31.2 °F 10.6 °F 31% 30.23 in 10.0 mi NW 12.7 mph 16.1 mph N/A   Scattered Clouds
6:15 PM 38.1 °F 31.7 °F 11.7 °F 34% 30.23 in 10.0 mi WNW 9.2 mph - N/A   Scattered Clouds
6:35 PM 37.6 °F 30.5 °F 10.8 °F 33% 30.24 in 10.0 mi NW 10.4 mph - N/A   Scattered Clouds
6:55 PM 36.5 °F 29.2 °F 11.3 °F 35% 30.24 in 10.0 mi NW 10.4 mph - N/A   Clear
7:15 PM 35.8 °F 29.4 °F 11.1 °F 36% 30.24 in 10.0 mi NW 8.1 mph - N/A   Clear
7:35 PM 35.1 °F 29.3 °F 12.4 °F 39% 30.25 in 10.0 mi NW 6.9 mph - N/A   Clear
7:55 PM 33.8 °F 27.7 °F 13.3 °F 43% 30.25 in 10.0 mi NW 6.9 mph - N/A   Clear
8:15 PM 31.6 °F 24.4 °F 16.7 °F 54% 30.26 in 10.0 mi WNW 8.1 mph - N/A   Clear
8:35 PM 30.7 °F 24.9 °F 17.6 °F 58% 30.27 in 10.0 mi WNW 5.8 mph - N/A   Clear
8:55 PM 30.2 °F 23.4 °F 18.0 °F 60% 30.27 in 10.0 mi WNW 6.9 mph - N/A   Clear
9:15 PM 30.2 °F 24.3 °F 17.8 °F 60% 30.28 in 10.0 mi WNW 5.8 mph - N/A   Clear
9:35 PM 30.2 °F 24.3 °F 17.1 °F 58% 30.28 in 10.0 mi NW 5.8 mph - N/A   Clear
9:55 PM 29.7 °F 22.8 °F 16.0 °F 57% 30.29 in 10.0 mi NW 6.9 mph - N/A   Clear
10:15 PM 30.6 °F 23.8 °F 15.8 °F 54% 30.29 in 10.0 mi NNW 6.9 mph - N/A   Clear
10:35 PM 30.2 °F 25.4 °F 14.9 °F 53% 30.29 in 10.0 mi NW 4.6 mph - N/A   Clear
10:55 PM 28.4 °F 23.3 °F 15.8 °F 59% 30.30 in 10.0 mi NW 4.6 mph - N/A   Clear
11:15 PM 29.1 °F 24.1 °F 15.6 °F 57% 30.30 in 10.0 mi NW 4.6 mph - N/A   Clear
11:35 PM 29.1 °F 23.0 °F 15.1 °F 56% 30.31 in 10.0 mi NNW 5.8 mph - N/A   Clear
11:55 PM 28.2 °F 23.1 °F 15.1 °F 58% 30.31 in 10.0 mi NNW 4.6 mph - N/A   Clear